Etusivu
METAR-TAF:

METAR-TAF

Lentoasemat :

South St. Paul Municipal Airport (Richard E. Fleming Field)

South St. Paul, Minnesota, Yhdysvallat

Leveyspiiri: 44-51-26N, Pituuspiiri: 093-01-58W, korkeus merenpinnasta: 250 m

Tämänhetkinen sää

Tämä raportti tehtiin 6 minuuttia sitten, kello 17.15 UTC
Tuuli 4 kn etelästä/kaakosta
Lämpötila -4°C
Kosteus 80%
Ilmanpaine 1014 hPa
Näkyvyys: 2.4 km
tuntematon

METAR: KSGS 131715Z AUTO 16004KT 1 1/2SM UP VV007 M04/M07 A2994 RMK AO2 T10451070

Aika: 11:21 (17:21 UTC)


TAF: puuttuu

Säähavainnot ja -ennusteet yli 4000 lentoasemalta (METAR- ja TAF-raportit).

Käytössä olevat sääasemat on merkitty karttaan keltaisilla ja punaisilla pisteillä.

Aseta hiiri pisteen päälle nähdäksesi sääaseman nimen.

Klikkaa sitten nähdäksesi säähavainnot ja -ennusteet.

Kartan vaihtaminen: klikkaa mustalla rastilla varustettuja vihreitä pisteitä, niin voit zoomata sisään; viivalla varustettua vihreää pistettä, niin voit zoomata ulos tai vihreitä nuolia, niin pääset viereisille kartoille.


METAR-TAF: